CW5212 Weather Reports


time (UTC)temp
C
wind
direction
speed
KPH
gust
KPH
rain 1hr
cm
rain 24hr
cm
rain mn
cm
humidity
%
barometer
mb
20260505053030 11 153 9.7 19.3 0.00 0.00 0.00 47 938.1
20260505051512 12 151 9.7 16.1 0.00 0.00 0.00 47 938.1
20260505041535 13 103 8.0 16.1 0.00 0.00 0.00 41 937.7
20260505040013 12 338 0.0 4.8 0.00 0.00 0.00 40 937.6
20260505034553 13 65 1.6 11.3 0.00 0.00 0.00 44 937.3
20260505033027 14 92 4.8 16.1 0.00 0.00 0.00 35 936.8
20260505031506 14 66 4.8 12.9 0.00 0.00 0.00 32 936.7
20260505030042 13 24 0.0 4.8 0.00 0.00 0.00 35 936.5
20260505024521 13 30 1.6 12.9 0.00 0.00 0.00 36 936.3
20260505023055 13 18 4.8 14.5 0.00 0.00 0.00 36 936.2
20260505021545 14 15 4.8 17.7 0.00 0.00 0.00 36 936.0
20260505020049 14 12 8.0 22.5 0.00 0.00 0.00 36 935.9
20260505014547 15 34 8.0 27.4 0.00 0.00 0.00 35 935.8
20260505013101 16 360 4.8 16.1 0.00 0.00 0.00 30 935.8
20260505011551 17 329 0.0 16.1 0.00 0.00 0.00 22 935.9
20260505004555 19 289 4.8 19.3 0.00 0.00 0.00 20 936.0
20260505003056 19 313 4.8 12.9 0.00 0.00 0.00 21 936.0
20260505001554 19 305 8.0 22.5 0.00 0.00 0.00 21 936.2
20260505000108 20 296 8.0 19.3 0.00 0.00 0.00 19 936.1
20260505000002 20 263 6.4 19.3 0.00 0.00 0.00 20 936.1
20260504234508 19 269 12.9 24.1 0.00 0.00 0.00 19 936.2
20260504233010 20 261 17.7 25.7 0.00 0.00 0.00 19 936.2
20260504231558 20 271 14.5 27.4 0.00 0.00 0.00 17 936.3
20260504230059 19 305 11.3 24.1 0.00 0.00 0.00 17 936.2
20260504224530 19 250 14.5 24.1 0.00 0.00 0.00 17 936.5
20260504223013 19 219 8.0 24.1 0.00 0.00 0.00 17 936.5
20260504221548 20 277 12.9 25.7 0.00 0.00 0.00 19 936.6
20260504220038 20 312 9.7 27.4 0.00 0.00 0.00 19 936.8
20260504214510 20 273 14.5 25.7 0.00 0.00 0.00 19 936.9
20260504213042 19 298 6.4 29.0 0.00 0.00 0.00 19 937.2
20260504211528 20 265 12.9 24.1 0.00 0.00 0.00 20 937.2
20260504210058 19 328 12.9 22.5 0.00 0.00 0.00 21 937.4
20260504204535 19 254 8.0 27.4 0.00 0.00 0.00 22 937.5
20260504203012 19 302 12.9 27.4 0.00 0.00 0.00 22 937.6
20260504201601 19 219 16.1 27.4 0.00 0.00 0.00 25 937.7
20260504200029 18 265 8.0 24.1 0.00 0.00 0.00 27 937.8
20260504194506 18 269 11.3 19.3 0.00 0.00 0.00 27 937.9
20260504193043 18 211 8.0 20.9 0.00 0.00 0.00 27 938.1
20260504191523 18 276 14.5 22.5 0.00 0.00 0.00 27 938.4
20260504190115 18 251 14.5 22.5 0.00 0.00 0.00 28 938.5
20260504184535 18 262 11.3 20.9 0.00 0.00 0.00 26 938.7
20260504183014 18 305 4.8 19.3 0.00 0.00 0.00 28 938.8
20260504181548 17 246 4.8 19.3 0.00 0.00 0.00 27 938.9
20260504180026 17 280 4.8 22.5 0.00 0.00 0.00 28 939.1
20260504174507 16 157 9.7 17.7 0.00 0.00 0.00 27 939.4
20260504173040 16 151 6.4 17.7 0.00 0.00 0.00 28 939.4
20260504171520 16 149 8.0 14.5 0.00 0.00 0.00 28 939.5
20260504140110 12 169 1.6 4.8 0.00 0.00 0.00 33 939.7
20260504081544 11 63 0.0 4.8 0.00 0.00 0.00 32 940.1